Regional Weather Roundup
Issued by NWS Portland, ME

Home | Current Version | Previous Version | Text Only | Print | Product List | Glossary On
Versions: 1 2 3 4 5 6 7 8 9 10 11 12 13 14 15 16 17 18 19 20 21 22 23 24 25 26 27 28 29 30 31 32 33 34 35 36 37 38 39 40 41 42 43 44 45 46 47 48 49 50
000
ASUS41 KGYX 260710
RWRGYX
WEATHER ROUNDUP FOR MAINE AND NEW HAMPSHIRE
NATIONAL WEATHER SERVICE GRAY ME
200 AM EST MON JAN 26 2015

MEZ002-005-006-010-012-015-018-020-021-024-026-027-029-260800-
MAINE

CITY           SKY/WX    TMP DP  RH WIND       PRES   REMARKS
PORTLAND       PTCLDY     8  -6  52 W5        30.10R
SANFORD        PTCLDY     0 -17  46 CALM      30.07R
BAR HARBOR     CLEAR      9   0  66 NW8       30.03R
WISCASSET      CLEAR      2  -4  76 NW3       30.11R
ROCKLAND       CLEAR      7  -6  56 W9        30.06R
FRYEBURG       PTCLDY    -6 -10  83 CALM      30.06R
LEWISTONAUBURN CLEAR      3  -9  55 N3        30.05R
AUGUSTA        CLEAR      5  -6  60 W3        30.06R
WATERVILLE     CLEAR      3  -9  55 W3        30.02R
BANGOR         CLEAR      5  -6  60 W8        30.04R
GREENVILLE       N/A     -1  -8  72 NW12G24   29.86R WCI -18
MILLINOCKET    CLEAR      5  -6  60 NW13      29.99R WCI -12
HOULTON        CLEAR      4  -8  57 W9G20     29.91R
PRESQUE ISLE   CLEAR      3 -11  51 NW13G18   29.91R WCI -14
FRENCHVILLE    CLEAR     -3 -11  68 NW12      29.85R WCI -21
CARIBOU        CLEAR      1 -11  57 NW9       29.89R
$$

NHZ002-005-008-009-011-012-014-260800-
NEW HAMPSHIRE

CITY           SKY/WX    TMP DP  RH WIND       PRES   REMARKS
PORTSMOUTH     MOCLDY     9  -5  53 NW10      30.07R WCI  -6
ROCHESTER      PTCLDY     6  -6  57 CALM      30.06R
NASHUA           N/A     11  -3  53 N9        30.09S
MANCHESTER     MOCLDY    10  -3  55 NW9G21    30.06F
CONCORD        PTCLDY     6  -5  60 NW7       30.09R
LACONIA        PTCLDY     7  -6  56 SW5       30.04R
PLYMOUTH       FAIR       6  -1  71 W9        30.08R
BERLIN         PTCLDY    -7 -14  71 CALM      30.00R
WHITEFIELD     PTCLDY   -10 -15  78 CALM      30.03R
JAFFREY        PTCLDY     8  -3  61 VRB3      30.00S
KEENE          FAIR       9  -2  61 N9        30.05F
LEBANON        PTCLDY     1  -4  79 CALM      30.09R
MT WASHINGTON  MOCLDY    -8 -15  71 NW54        N/A  WCI -43
$$

VTZ005-007-008-260800-
VERMONT

CITY           SKY/WX    TMP DP  RH WIND       PRES   REMARKS
ST JOHNSBURY     N/A     -7 -11  83 MISG      30.08R
MONTPELIER     PTCLDY    -8 -11  86 CALM      30.07R
BURLINGTON     PTCLDY     3  -7  63 E3        30.14R
$$

MAZ007-012-024-CTZ003-RIZ002-NYZ038-NYZ072-260800-
SOUTHERN NEW ENGLAND AND NY

CITY           SKY/WX    TMP DP  RH WIND       PRES   REMARKS
BOSTON         CLOUDY    16  -1  47 NW15      30.08R WCI   1
WORCESTER      MOCLDY    13   0  56 N10       29.98R WCI   0
NANTUCKET      PTCLDY    27  12  53 N16       30.04R WCI  15
PROVIDENCE     CLOUDY    21   5  50 N12       30.06R WCI   9
HARTFORD       MOCLDY    17   4  56 NW7       30.06R
ALBANY         MOCLDY    10  -1  61 N6        30.10R
NEW YORK CITY  CLOUDY    27   8  44 NE12      30.03R WCI  17
$$

ANZ081-ANZ082-ANZ150-NHZ014-MEZ023>029-260800-
COASTAL MARINE OBSERVATIONS

STATION/POSITION TIME  TEMP    WIND        PRES    WAVE
                       AIR SEA DIR/SP/G            HT/PER
                 (UTC) (F)     (DEG/KT/KT) (MB)    (FT/S)
MOUNT DESERT ROC 0700   16                 1016.3R
MATINICUS ROCK   0700          330/ 22/ 24 1017.9R
PORTLAND WX BUOY 0650   14 39  360/ 12/ 16 1018.6R   3/12
WELLS            0600   11 36  340/  7/  9 1017.5R
ISLE OF SHOALS   0700   14     330/ 17/ 20 1017.6R
JEFFREYS LEDGE   0621      44                N/A     5/ 5
CASHES LEDGE BUO 0650   23 45  340/ 21/ 27 1016.7R   8/ 6
$$

.............KEY..............
   WCI - WIND CHILL
   TC  - TEMPERATURE IN CELSIUS
   VSB - VISIBILITY IN MILES
   HX  - HEAT INDEX
   FAIR- INDICATES FEW OR NO CLOUDS BELOW 12,000 FT, WITH NO
         SIGNIFICANT WEATHER AND/OR OBSTRUCTIONS TO VISIBILITY.




USA.gov is the U.S. government's official web portal to all federal, state and local government web resources and services.